USA2203 KEUG-KSFO

Flight info

Callsign USA2203
Flight time N/A
Altitude 37000
Route RBG MLBEC BDEGA4
Aircraft A321/M-SDE3FGHIRWY/LB1

Departure

Time 2026-04-24 16:12
Airport Eugene Airport (KEUG)

Arrival

Time N/A
Airport San Francisco International Airport (KSFO)
Time Latitude Longitude Altitude Speed Heading
2026-04-24 15:40 44.11986 -123.21478 373 ft 0 kts 113°
2026-04-24 16:00 44.11990 -123.21493 372 ft 4 kts 114°
2026-04-24 16:00 44.12001 -123.21527 372 ft 4 kts 108°
2026-04-24 16:00 44.12008 -123.21563 371 ft 4 kts 99°
2026-04-24 16:01 44.12010 -123.21586 371 ft 0 kts 97°
2026-04-24 16:06 44.12098 -123.21504 373 ft 11 kts 26°
2026-04-24 16:07 44.12163 -123.21474 373 ft 9 kts 351°
2026-04-24 16:07 44.12218 -123.21512 374 ft 8 kts 329°
2026-04-24 16:07 44.12325 -123.21604 374 ft 14 kts 328°
2026-04-24 16:08 44.12410 -123.21679 372 ft 15 kts 328°
2026-04-24 16:08 44.12607 -123.21713 373 ft 14 kts
2026-04-24 16:09 44.12819 -123.21714 370 ft 16 kts 358°
2026-04-24 16:09 44.12928 -123.21717 371 ft 15 kts 359°
2026-04-24 16:09 44.13037 -123.21719 370 ft 16 kts 359°
2026-04-24 16:09 44.13152 -123.21723 369 ft 17 kts 358°
2026-04-24 16:10 44.13498 -123.21730 369 ft 17 kts 341°
2026-04-24 16:11 44.13453 -123.21914 370 ft 15 kts 181°
2026-04-24 16:11 44.13196 -123.21913 373 ft 81 kts 179°
2026-04-24 16:11 44.12308 -123.21897 418 ft 164 kts 179°
2026-04-24 16:12 44.09978 -123.21889 2390 ft 173 kts 183°
2026-04-24 16:12 44.08782 -123.22029 2983 ft 179 kts 185°
2026-04-24 16:12 44.06008 -123.22443 3445 ft 224 kts 185°
2026-04-24 16:13 44.04363 -123.22698 3800 ft 249 kts 185°
2026-04-24 16:13 44.00711 -123.23255 5245 ft 270 kts 185°
2026-04-24 16:14 43.96938 -123.23813 6942 ft 278 kts 185°
2026-04-24 16:14 43.95002 -123.24097 7744 ft 282 kts 185°
2026-04-24 16:14 43.91018 -123.24679 9300 ft 291 kts 185°
2026-04-24 16:15 43.89686 -123.24872 9784 ft 295 kts 185°
2026-04-24 16:15 43.84656 -123.25606 10661 ft 336 kts 186°
2026-04-24 16:16 43.79794 -123.26329 11588 ft 359 kts 187°
2026-04-24 16:16 43.77292 -123.26699 12248 ft 363 kts 187°
2026-04-24 16:17 43.69608 -123.27821 14224 ft 375 kts 187°
2026-04-24 16:17 43.64360 -123.28580 15495 ft 382 kts 187°
2026-04-24 16:18 43.59052 -123.29344 16666 ft 389 kts 188°
2026-04-24 16:18 43.53606 -123.30136 17785 ft 396 kts 188°
2026-04-24 16:18 43.50855 -123.30537 18322 ft 399 kts 188°
2026-04-24 16:19 43.45286 -123.31340 19363 ft 404 kts 188°
2026-04-24 16:19 43.42473 -123.31747 19852 ft 407 kts 188°
2026-04-24 16:20 43.36838 -123.32566 20743 ft 412 kts 188°
2026-04-24 16:20 43.31101 -123.33385 21594 ft 417 kts 188°
2026-04-24 16:20 43.28197 -123.33797 22017 ft 419 kts 188°
2026-04-24 16:21 43.22351 -123.34630 22876 ft 424 kts 188°
2026-04-24 16:21 43.19402 -123.35046 23284 ft 426 kts 186°
2026-04-24 16:21 43.16414 -123.35059 23686 ft 431 kts 177°
2026-04-24 16:22 43.13460 -123.34762 24093 ft 433 kts 177°
2026-04-24 16:22 43.07414 -123.34160 24899 ft 438 kts 177°
2026-04-24 16:22 43.04360 -123.33863 25311 ft 439 kts 177°
2026-04-24 16:23 43.01305 -123.33569 25701 ft 441 kts 177°
2026-04-24 16:23 42.98229 -123.33277 26067 ft 444 kts 177°
2026-04-24 16:23 42.95130 -123.32986 26435 ft 446 kts 177°
2026-04-24 16:24 42.88910 -123.32389 27175 ft 450 kts 177°
2026-04-24 16:24 42.85778 -123.32088 27536 ft 451 kts 177°
2026-04-24 16:24 42.82673 -123.31789 27872 ft 453 kts 177°
2026-04-24 16:24 42.79515 -123.31482 28205 ft 455 kts 177°
2026-04-24 16:25 42.76346 -123.31171 28526 ft 457 kts 177°
2026-04-24 16:25 42.73164 -123.30858 28857 ft 459 kts 177°
2026-04-24 16:25 42.69977 -123.30545 29167 ft 460 kts 177°
2026-04-24 16:26 42.63551 -123.29928 29756 ft 463 kts 177°
2026-04-24 16:26 42.60322 -123.29624 30020 ft 464 kts 177°
2026-04-24 16:26 42.53893 -123.29015 30494 ft 467 kts 177°
2026-04-24 16:27 42.50640 -123.28706 30779 ft 467 kts 177°
2026-04-24 16:27 42.47398 -123.28395 31094 ft 466 kts 177°
2026-04-24 16:27 42.44156 -123.28085 31403 ft 466 kts 177°
2026-04-24 16:27 42.40964 -123.27784 31702 ft 465 kts 177°
2026-04-24 16:28 42.37694 -123.27474 32001 ft 465 kts 177°
2026-04-24 16:28 42.34468 -123.27165 32299 ft 465 kts 177°
2026-04-24 16:28 42.28059 -123.26559 32908 ft 464 kts 177°
2026-04-24 16:29 42.24835 -123.26250 33193 ft 464 kts 176°
2026-04-24 16:29 42.21613 -123.25935 33480 ft 464 kts 176°
2026-04-24 16:29 42.15171 -123.25319 34036 ft 463 kts 176°
2026-04-24 16:30 42.08736 -123.24721 34593 ft 462 kts 177°
2026-04-24 16:30 42.05520 -123.24428 34867 ft 462 kts 177°
2026-04-24 16:30 42.02343 -123.24133 35145 ft 461 kts 177°
2026-04-24 16:31 41.99147 -123.23830 35433 ft 460 kts 177°
2026-04-24 16:31 41.95960 -123.23527 35743 ft 458 kts 177°
2026-04-24 16:31 41.92781 -123.23227 36080 ft 455 kts 178°
2026-04-24 16:31 41.89627 -123.22931 36349 ft 453 kts 178°
2026-04-24 16:32 41.87540 -123.22737 36513 ft 453 kts 178°
2026-04-24 16:32 41.83328 -123.22348 36834 ft 452 kts 178°
2026-04-24 16:32 41.80202 -123.22059 37032 ft 450 kts 178°
2026-04-24 16:32 41.77089 -123.21768 37072 ft 445 kts 178°
2026-04-24 16:33 41.70978 -123.21196 37069 ft 441 kts 178°
2026-04-24 16:33 41.64847 -123.20615 37063 ft 440 kts 178°
2026-04-24 16:34 41.58777 -123.20051 37062 ft 440 kts 178°
2026-04-24 16:34 41.52656 -123.19490 37064 ft 440 kts 178°
2026-04-24 16:35 41.46537 -123.18924 37063 ft 440 kts 178°
2026-04-24 16:35 41.40464 -123.18360 37063 ft 440 kts 178°
2026-04-24 16:36 41.34353 -123.17797 37064 ft 439 kts 178°
2026-04-24 16:36 41.28242 -123.17238 37053 ft 439 kts 178°
2026-04-24 16:37 41.22171 -123.16688 37051 ft 439 kts 178°
2026-04-24 16:37 41.16062 -123.16133 37047 ft 439 kts 178°
2026-04-24 16:38 41.10000 -123.15574 37047 ft 438 kts 178°
2026-04-24 16:38 41.03906 -123.15001 37044 ft 438 kts 178°
2026-04-24 16:39 40.97815 -123.14453 37042 ft 438 kts 179°
2026-04-24 16:39 40.91762 -123.13911 37035 ft 438 kts 179°
2026-04-24 16:40 40.85673 -123.13359 37039 ft 438 kts 179°
2026-04-24 16:40 40.79581 -123.12812 37044 ft 438 kts 178°
2026-04-24 16:41 40.73486 -123.12255 37045 ft 438 kts 179°
2026-04-24 16:41 40.67418 -123.11701 37050 ft 439 kts 179°
2026-04-24 16:42 40.61319 -123.11152 37054 ft 438 kts 179°
2026-04-24 16:42 40.56257 -123.10701 37058 ft 438 kts 179°
2026-04-24 16:43 40.50161 -123.10158 37051 ft 438 kts 179°
2026-04-24 16:43 40.44069 -123.09615 37051 ft 439 kts 179°
2026-04-24 16:44 40.37980 -123.09069 37053 ft 438 kts 179°
2026-04-24 16:44 40.31932 -123.08526 37051 ft 437 kts 179°
2026-04-24 16:45 40.25845 -123.07981 37053 ft 437 kts 179°
2026-04-24 16:45 40.19757 -123.07435 37047 ft 437 kts 179°
2026-04-24 16:46 40.13732 -123.06893 37045 ft 437 kts 179°
2026-04-24 16:46 40.07667 -123.06355 37046 ft 437 kts 179°
2026-04-24 16:47 40.01589 -123.05824 37045 ft 436 kts 179°
2026-04-24 16:47 39.95535 -123.05286 37046 ft 435 kts 179°
2026-04-24 16:48 39.89481 -123.04754 37044 ft 435 kts 179°
2026-04-24 16:48 39.83434 -123.04221 37045 ft 435 kts 179°
2026-04-24 16:49 39.77433 -123.03694 37039 ft 434 kts 179°
2026-04-24 16:49 39.71390 -123.03158 37042 ft 434 kts 179°
2026-04-24 16:50 39.65358 -123.02624 37039 ft 434 kts 179°
2026-04-24 16:50 39.59313 -123.02100 37039 ft 434 kts 179°
2026-04-24 16:51 39.53313 -123.01586 37040 ft 434 kts 179°
2026-04-24 16:51 39.47281 -123.01062 37040 ft 434 kts 179°
2026-04-24 16:52 39.41251 -123.00540 37041 ft 434 kts 179°
2026-04-24 16:52 39.35212 -123.00006 37037 ft 434 kts 179°
2026-04-24 16:53 39.29224 -122.99486 37043 ft 434 kts 180°
2026-04-24 16:53 39.23180 -122.98972 37041 ft 433 kts 180°
2026-04-24 16:54 39.17158 -122.98445 37042 ft 433 kts 180°
2026-04-24 16:54 39.11182 -122.97928 37041 ft 433 kts 180°
2026-04-24 16:55 39.05157 -122.97418 37038 ft 432 kts 180°
2026-04-24 16:55 38.99144 -122.96907 36993 ft 432 kts 180°
2026-04-24 16:56 38.96129 -122.96647 36223 ft 436 kts 180°
2026-04-24 16:56 38.93138 -122.96389 35541 ft 435 kts 179°
2026-04-24 16:56 38.90100 -122.96128 34699 ft 438 kts 179°
2026-04-24 16:56 38.87046 -122.95738 33859 ft 443 kts 172°
2026-04-24 16:57 38.84010 -122.94880 32871 ft 449 kts 169°
2026-04-24 16:57 38.80943 -122.93962 31917 ft 453 kts 169°
2026-04-24 16:57 38.77891 -122.93051 31338 ft 447 kts 169°
2026-04-24 16:57 38.74864 -122.92154 30750 ft 443 kts 169°
2026-04-24 16:58 38.71863 -122.91268 30085 ft 440 kts 169°
2026-04-24 16:58 38.68927 -122.90401 29482 ft 436 kts 169°
2026-04-24 16:58 38.65980 -122.89526 28942 ft 430 kts 168°
2026-04-24 16:58 38.63051 -122.88659 28265 ft 428 kts 169°
2026-04-24 16:59 38.60168 -122.87811 27651 ft 424 kts 169°
2026-04-24 16:59 38.57312 -122.86973 27119 ft 418 kts 169°
2026-04-24 16:59 38.51692 -122.85321 26095 ft 411 kts 168°
2026-04-24 17:00 38.48912 -122.84501 25589 ft 408 kts 168°
2026-04-24 17:00 38.43404 -122.82882 24580 ft 403 kts 168°
2026-04-24 17:00 38.40678 -122.82084 24084 ft 400 kts 168°
2026-04-24 17:01 38.35311 -122.80513 23107 ft 395 kts 168°
2026-04-24 17:01 38.32649 -122.79731 22618 ft 392 kts 168°
2026-04-24 17:02 38.27361 -122.78182 21649 ft 386 kts 168°
2026-04-24 17:02 38.24749 -122.77422 21156 ft 383 kts 168°
2026-04-24 17:02 38.22160 -122.76665 20693 ft 380 kts 168°
2026-04-24 17:02 38.19593 -122.75916 20219 ft 376 kts 168°
2026-04-24 17:03 38.14524 -122.74439 19290 ft 370 kts 167°
2026-04-24 17:03 38.12014 -122.73707 18840 ft 368 kts 167°
2026-04-24 17:03 38.09525 -122.72983 18376 ft 365 kts 167°
2026-04-24 17:04 38.07067 -122.72270 17890 ft 362 kts 167°
2026-04-24 17:04 38.02217 -122.70868 16994 ft 357 kts 167°
2026-04-24 17:04 37.99816 -122.70176 16556 ft 354 kts 167°
2026-04-24 17:05 37.97419 -122.69482 16114 ft 351 kts 167°
2026-04-24 17:05 37.95043 -122.68796 15685 ft 349 kts 167°
2026-04-24 17:05 37.90386 -122.67133 14814 ft 345 kts 155°
2026-04-24 17:06 37.88321 -122.65592 14386 ft 344 kts 143°
2026-04-24 17:06 37.84686 -122.61742 13545 ft 341 kts 140°
2026-04-24 17:06 37.82874 -122.59815 13122 ft 339 kts 140°
2026-04-24 17:07 37.81659 -122.58528 12791 ft 338 kts 140°
2026-04-24 17:07 37.79246 -122.55972 11962 ft 338 kts 140°
2026-04-24 17:07 37.75813 -122.52343 11514 ft 303 kts 141°
2026-04-24 17:08 37.72661 -122.49015 10987 ft 293 kts 140°
2026-04-24 17:08 37.71095 -122.47354 11005 ft 294 kts 140°
2026-04-24 17:08 37.69527 -122.45682 11000 ft 294 kts 140°
2026-04-24 17:09 37.66390 -122.42342 11001 ft 294 kts 140°
2026-04-24 17:09 37.63255 -122.39014 11000 ft 294 kts 140°
2026-04-24 17:10 37.61710 -122.37363 10986 ft 295 kts 137°
2026-04-24 17:10 37.57446 -122.31679 9643 ft 293 kts 132°
2026-04-24 17:11 37.53431 -122.26018 7588 ft 283 kts 132°
2026-04-24 17:12 37.54672 -122.17802 3824 ft 254 kts 347°